Regional Weather Roundup
Issued by NWS Grand Forks, ND

Home | Current Version | Previous Version | Graphics & Text | Print | Product List | Glossary On
Versions: 1 2 3 4 5 6 7 8 9 10 11 12 13 14 15 16 17 18 19 20 21 22 23 24 25 26 27 28 29 30 31 32 33 34 35 36 37 38 39 40 41 42 43 44 45 46 47 48 49 50
000
ASUS43 KFGF 151931
RWRFGF
PRAIRIE TO PINES  WEATHER ROUNDUP
NATIONAL WEATHER SERVICE EASTERN NORTH DAKOTA/GRAND FORKS ND
200 PM CDT MON SEP 15 2014

 **SATELLITE DATA USED TO AUGMENT SKY COVER AT AUTOMATED STATIONS**
 *****  WEATHER ACROSS EASTERN NORTH DAKOTA  *****

CITY           SKY/WX    TMP DP  RH WIND       PRES   REMARKS
GRAND FORKS    MOSUNNY   64  38  38 VRB7      30.18F
GRAND FRKS AFB MOSUNNY   65  38  37 W12       30.18F
GRAND FRKS NWS   N/A     64 N/A N/A NW7         N/A
DEVILS LAKE    SUNNY     63  37  39 W12G17    30.15F
FARGO          MOSUNNY   64  35  34 W7        30.22F
WAHPETON ARPT  CLEAR     61  28  29 N5        30.24F
$$

 ***** WEATHER ACROSS CENTRAL AND WESTERN NORTH DAKOTA  *****

CITY           SKY/WX    TMP DP  RH WIND       PRES   REMARKS
BISMARCK       SUNNY     67  35  30 W14G20    30.23F
MINOT          SUNNY     65  34  31 SW10      30.16F
JAMESTOWN      SUNNY     62  38  40 W13       30.22F
MINOT AFB      SUNNY     65  36  33 NW8       30.15F
GARRISON         N/A     64  37  36 SW13      30.19F
WILLISTON      SUNNY     65  32  29 S12       30.17F
DICKINSON      SUNNY     63  37  38 S8        30.19F
HETTINGER      SUNNY     61  36  39 VRB5      30.23F
$$

 *****  OTHER AIRPORT OBSERVATIONS IN OUR AREA  *****

CITY           SKY/WX    TMP DP  RH WIND       PRES   REMARKS
WALHALLA         N/A     64  34  32 W8G16     30.13F
GRAFTON AIRPOR MOCLDY    64  37  36 W14       30.15F
VALLEY CITY AR FAIR      63  37  39 W10G16    30.21F
CANDO          FAIR      64  36  34 W16G26    30.15F
CAVALIER APRT  FAIR      63  36  36 W10       30.14F
GWINNER        CLEAR     63  34  34 N8        30.25F
ROLLA          FAIR      63  37  39 W14G21    30.15F
 ***** THE ABOVE OBSERVATIONS ARE NON NWS ARE NOT QUALITY
       CONTROLLED AND MAY MIS-REPORT RAIN FOR SNOW...
$$

  *****  WEATHER ACROSS NORTHERN MINNESOTA  *****

CITY           SKY/WX    TMP DP  RH WIND       PRES   REMARKS
FLAG ISLAND    PTSUNNY   59  34  38 W15G23    30.10F
WARROAD        MOSUNNY   61  37  41 SW9       30.14F
ROSEAU         MOSUNNY   63  37  39 W10G16    30.15F
HALLOCK        SUNNY     64  28  25 NW7       30.14F
THF RVR FALLS  PTSUNNY   63  34  34 W13       30.17F
BAUDETTE       PTSUNNY   58  33  39 W6        30.15F
WASKISH        MOSUNNY   59  41  51 SW13      30.17F
CROOKSTON      MOSUNNY   63  37  39 W9G17     30.18F
STEPHEN NDAWN    N/A     64  37  36 NW10        N/A
GREENBUSH NDAW   N/A     61  36  39 W10         N/A
$$
  *****  WEATHER ACROSS CENTRAL AND WEST MINNESOTA  *****

CITY           SKY/WX    TMP DP  RH WIND       PRES   REMARKS
FOSSTON        MOSUNNY   59  37  44 W15G21    30.20F
BEMIDJI        MOSUNNY   57  31  37 NW13      30.19F
PARK RAPIDS    PTSUNNY   59  30  33 NW12      30.21F
ELBOW LAKE     FAIR      58  34  40 N9        30.24F
WADENA         MOSUNNY   57  34  41 N7        30.22F
DETROIT LAKES  SUNNY     59  32  36 NW10      30.23F
MOORHEAD       SUNNY     63  28  27 NW8G17    30.22F
FERGUS FALLS   SUNNY     59  27  29 N7        30.24F
MORRIS MN      SUNNY     63  34  34 N9        30.23F
STAPLES        PTSUNNY   55  34  44 NW10      30.22F
$$
  *****  WEATHER ELSEWHERE ACROSS MINNESOTA  *****

CITY           SKY/WX    TMP DP  RH WIND       PRES   REMARKS
DULUTH         PTSUNNY   54  32  43 NW14G21   30.17S
INTRNTL FALLS  PTSUNNY   59  37  44 W15G22    30.14F
ELY            MOSUNNY   55  36  47 CALM      30.14S
CLOQUET        PTSUNNY   57  32  38 NW6G17    30.18F
WHEATON        SUNNY     61  32  33 NW9G17    30.26F
BRAINERD       MOSUNNY   55  33  43 NW9       30.23S
HIBBING        MOSUNNY   58  34  40 NW14G20   30.18F
ALEXANDRIA     MOSUNNY   58  36  43 W8        30.25S
SAINT CLOUD    CLOUDY    61  35  37 NW12      30.23S
MINNEAPOLIS    PTSUNNY   60  40  47 N12       30.21S
$$

  *****  WEATHER ACROSS SOUTH DAKOTA  *****

CITY           SKY/WX    TMP DP  RH WIND       PRES   REMARKS
SIOUX FALLS    PTSUNNY   59  43  55 N10       30.26S
BROOKINGS      NOT AVBL
WATERTOWN      SUNNY     59  35  40 N10       30.25F
HURON          SUNNY     63  36  36 N10G16    30.28S
SISSETON         N/A     63  31  30 NE7       30.25F
ABERDEEN       SUNNY     61  34  36 NW8       30.27F
MITCHELL       SUNNY     61  35  37 MISG      30.29S
PIERRE         SUNNY     62  36  37 VRB3      30.27F
MOBRIDGE       SUNNY     63  35  35 S7        30.24F
RAPID CITY     SUNNY     62  43  49 S15G24    30.24F
$$

  *****  SOME WEATHER IN NEARBY STATES *****

CITY           SKY/WX    TMP DP  RH WIND       PRES   REMARKS
GLASGOW MT     SUNNY     65  37  35 S8        30.13F
GREAT FALLS MT SUNNY     70  40  33 VRB5      30.07F
CHEYENNE WY    SUNNY     66  34  30 S15       30.33F
SCOTTSBLUFF NE SUNNY     63  46  54 SE12G18   30.29F
OMAHA NE       PTSUNNY   63  47  55 N14       30.23R
DES MOINES IA  CLOUDY    62  50  64 N12G18    30.18S
DAVENPORT IA   PTSUNNY   66  52  60 N8        30.08F
CHICAGO IL     CLOUDY    62  50  64 S8        30.08F
EAU CLAIRE WI  MOSUNNY   61  40  45 VRB7      30.17S
LA CROSSE WI   MOSUNNY   59  47  64 NW6       30.18S
$$

  *****  SOME NATIONAL WEATHER *****

CITY           SKY/WX    TMP DP  RH WIND       PRES   REMARKS
LA GUARDIA NY  MOSUNNY   71  41  33 W7        30.14F
RALEIGH NC     PTSUNNY   75  62  64 VRB3      30.17F
ATLANTA GA     PTSUNNY   78  68  71 CALM      30.16F
NEW ORLEANS LA PTSUNNY   89  74  60 N7        30.06F HX  98
OKLAHOMA CITY  PTSUNNY   84  68  58 S10       30.14F
ALBUQUERQUE NM MOSUNNY   76  54  46 W5        30.23F
SALT LAKE CITY MOSUNNY   84  37  18 CALM      30.11S
LOS ANGELES CA MOSUNNY   82  65  56 W12       29.81F
BOISE ID       MOSUNNY   84  32  15 CALM      30.03F
SEATTLE WA     MOSUNNY   75  53  46 W6        29.87F
$$

*** WEATHER ACROSS MANITOBA...SASKATCHEWAN AND ONTARIO ***
                ***ONTARIO***

CITY           SKY/WX    TMP DP  RH WIND       PRES   REMARKS
GERALDTON      PTSUNNY  N/A N/A N/A W9          N/A
THUNDER BAY    PTSUNNY   57  46  67 W7        30.08F
SIOUX LOOKOUT  MOSUNNY   57  39  51 W14G22    30.04F
TORONTO        CLOUDY    63  48  59 SW9       30.09
BIG TROUT LK   CLOUDY    55  43  62 W10       29.82F
PICKLE LAKE    PTSUNNY   55  34  44 SW16G25   29.95F
DRYDEN         PTSUNNY   57  37  47 W23G29    30.06F
KENORA         PTSUNNY   59  36  41 W12G25    30.10
$$
                *** MANITOBA***

CITY           SKY/WX    TMP DP  RH WIND       PRES   REMARKS
BRANDON        MOSUNNY   63  36  36 W15G22    30.11F
DAUPHIN        SUNNY     66  37  34 W21       30.03F
ISLAND LAKE    MOSUNNY   61  39  44 W6        29.86
PILOT MOUND      N/A     61  34  36 W7          N/A
THE PAS        PTSUNNY   66  39  37 W17G24    29.88F
THOMPSON       LGT RAIN  48  43  81 N12       29.85S
WINNIPEG       MOSUNNY   64  32  29 W14G22    30.11
LYNN LAKE      CLOUDY    39  34  81 MISG      29.94R
CHURCHILL      FLURRIES  37  25  60 N18       29.95R
GILLAM         DRIZZLE   37  36  93 NE14G20   29.87R
$$
                ***SASKATCHEWAN***

CITY           SKY/WX    TMP DP  RH WIND       PRES   REMARKS
ESTEVAN        MOSUNNY   64  39  39 W12       30.14F
KINDERSLEY     MOSUNNY   68  37  32 SW7       30.04F
LLOYDMINSTER   MOSUNNY   70  41  35 W9G20     29.98
PRINCE ALBERT  PTSUNNY   66  48  52 W7        29.94F
REGINA         MOSUNNY   68  41  37 W16G24    30.08F
YORKTON        SUNNY     66  39  37 SW14G24   30.03F
N. BATTLEFORD  MOSUNNY   68  43  40 W8        30.01F
LA RONGE       PTSUNNY   64  39  39 W10       29.90S
SASKATOON      MOSUNNY   68  43  40 NW12      30.02F
SWIFT CURRENT  SUNNY     66  34  30 W12       30.07F
$$
NOTE: THESE ARE AUTOMATED STATIONS WITH LIMITED QUALITY CONTROL
      "FAIR" INDICATES FEW OR NO CLOUDS BELOW 12,000 FEET WITH NO
      SIGNIFICANT WEATHER AND/OR OBSTRUCTIONS TO VISIBILITY.
      SKY/WX - SKY CONDITION AND SIGNIFICANT WEATHER.
      TMP - AIR TEMPERATURE.    DP   - DEWPOINT TEMPERATURE.
      RH  - RELATIVE HUMIDITY.  PRES - PRESSURE.
      HX  - HEAT INDEX.         WCI  - WIND CHILL INDEX.
$


USA.gov is the U.S. government's official web portal to all federal, state and local government web resources and services.